Time,TemperatureF,DewpointF,PressureIn,WindDirection,WindDirectionDegrees,WindSpeedMPH,WindSpeedGustMPH,Humidity,HourlyPrecipIn,Conditions,Clouds,dailyrainin,SoftwareType,DateUTC
2013-02-24 00:01:00,33.0,28.0,30.07,North,360,10.0,12.0,81,0.00,,,0.00,,2013-02-24 05:01:00,
2013-02-24 00:11:00,33.0,28.0,30.07,North,360,10.0,12.0,81,0.00,,,0.00,,2013-02-24 05:11:00,
2013-02-24 00:22:00,33.0,27.0,30.07,North,360,7.0,15.0,79,0.00,,,0.00,,2013-02-24 05:22:00,
2013-02-24 00:32:00,33.0,28.0,30.07,North,360,10.0,13.0,80,0.00,,,0.00,,2013-02-24 05:32:00,
2013-02-24 00:42:00,33.0,28.0,30.07,North,360,10.0,13.0,80,0.00,,,0.00,,2013-02-24 05:42:00,
2013-02-24 00:52:00,32.0,28.0,30.07,North,360,8.0,11.0,84,0.00,,,0.00,,2013-02-24 05:52:00,
2013-02-24 01:02:00,32.0,29.0,30.06,North,360,11.0,13.0,88,0.00,,,0.00,,2013-02-24 06:02:00,
2013-02-24 01:11:00,32.0,29.0,30.06,North,360,11.0,13.0,88,0.00,,,0.00,,2013-02-24 06:11:00,
2013-02-24 01:21:00,32.0,29.0,30.05,North,360,9.0,11.0,89,0.00,,,0.00,,2013-02-24 06:21:00,
2013-02-24 01:32:00,32.0,30.0,30.05,North,360,12.0,13.0,91,0.00,,,0.00,,2013-02-24 06:32:00,
2013-02-24 01:42:00,32.0,30.0,30.05,North,360,12.0,13.0,91,0.00,,,0.00,,2013-02-24 06:42:00,
2013-02-24 01:52:00,32.0,30.0,30.05,North,360,12.0,13.0,91,0.00,,,0.00,,2013-02-24 06:52:00,
2013-02-24 02:01:00,31.0,29.0,30.03,North,360,11.0,13.0,92,0.00,,,0.00,,2013-02-24 07:01:00,
2013-02-24 02:12:00,31.0,29.0,30.03,North,360,11.0,13.0,92,0.00,,,0.00,,2013-02-24 07:12:00,
2013-02-24 02:22:00,31.0,29.0,30.02,North,360,12.0,13.0,93,0.00,,,0.00,,2013-02-24 07:22:00,
2013-02-24 02:32:00,31.0,29.0,30.01,North,360,12.0,14.0,93,0.00,,,0.00,,2013-02-24 07:32:00,
2013-02-24 02:42:00,31.0,29.0,30.01,North,360,12.0,14.0,93,0.00,,,0.00,,2013-02-24 07:42:00,
2013-02-24 02:51:00,31.0,29.0,30.01,North,360,11.0,13.0,93,0.00,,,0.00,,2013-02-24 07:51:00,
2013-02-24 03:01:00,31.0,29.0,30.01,North,360,10.0,13.0,93,0.00,,,0.00,,2013-02-24 08:01:00,
2013-02-24 03:11:00,31.0,29.0,30.01,North,360,10.0,13.0,93,0.00,,,0.00,,2013-02-24 08:11:00,
2013-02-24 03:22:00,31.0,29.0,29.99,North,360,13.0,14.0,94,0.00,,,0.00,,2013-02-24 08:22:00,
2013-02-24 03:32:00,32.0,30.0,29.98,North,360,10.0,13.0,93,0.00,,,0.00,,2013-02-24 08:32:00,
2013-02-24 03:42:00,32.0,30.0,29.98,North,360,10.0,13.0,93,0.00,,,0.00,,2013-02-24 08:42:00,
2013-02-24 03:53:00,32.0,30.0,29.98,North,360,14.0,17.0,93,0.00,,,0.00,,2013-02-24 08:53:00,
2013-02-24 04:01:00,32.0,30.0,29.98,North,360,17.0,20.0,91,0.00,,,0.00,,2013-02-24 09:01:00,
2013-02-24 04:11:00,32.0,30.0,29.98,North,360,17.0,20.0,91,0.00,,,0.00,,2013-02-24 09:11:00,
2013-02-24 04:21:00,33.0,30.0,29.97,North,360,17.0,19.0,90,0.00,,,0.00,,2013-02-24 09:21:00,
2013-02-24 04:32:00,33.0,30.0,29.97,North,360,17.0,19.0,88,0.00,,,0.00,,2013-02-24 09:32:00,
2013-02-24 04:42:00,33.0,30.0,29.97,North,360,17.0,19.0,88,0.00,,,0.00,,2013-02-24 09:42:00,
2013-02-24 04:51:00,33.0,30.0,29.96,North,360,18.0,21.0,88,0.00,,,0.00,,2013-02-24 09:51:00,
2013-02-24 05:01:00,33.0,30.0,29.95,North,360,19.0,23.0,88,0.00,,,0.00,,2013-02-24 10:01:00,
2013-02-24 05:11:00,33.0,30.0,29.95,North,360,19.0,23.0,88,0.00,,,0.00,,2013-02-24 10:11:00,
2013-02-24 05:21:00,33.0,30.0,29.95,North,360,16.0,22.0,88,0.00,,,0.00,,2013-02-24 10:21:00,
2013-02-24 05:32:00,34.0,31.0,29.94,North,360,18.0,22.0,89,0.00,,,0.00,,2013-02-24 10:32:00,
2013-02-24 05:42:00,34.0,31.0,29.94,North,360,18.0,22.0,89,0.00,,,0.00,,2013-02-24 10:42:00,
2013-02-24 05:51:00,34.0,31.0,29.93,North,360,19.0,22.0,89,0.00,,,0.00,,2013-02-24 10:51:00,
2013-02-24 06:01:00,34.0,31.0,29.92,North,360,20.0,23.0,89,0.00,,,0.00,,2013-02-24 11:01:00,
2013-02-24 06:11:00,34.0,31.0,29.92,North,360,20.0,23.0,89,0.00,,,0.00,,2013-02-24 11:11:00,
2013-02-24 06:22:00,34.0,31.0,29.92,North,360,19.0,21.0,89,0.00,,,0.00,,2013-02-24 11:22:00,
2013-02-24 06:32:00,33.0,30.0,29.92,North,360,18.0,21.0,90,0.00,,,0.00,,2013-02-24 11:32:00,
2013-02-24 06:42:00,33.0,30.0,29.92,North,360,18.0,21.0,90,0.00,,,0.00,,2013-02-24 11:42:00,
2013-02-24 06:52:00,33.0,30.0,29.93,North,360,17.0,19.0,90,0.00,,,0.00,,2013-02-24 11:52:00,
2013-02-24 07:02:00,33.0,30.0,29.92,North,360,18.0,22.0,90,0.00,,,0.00,,2013-02-24 12:02:00,
2013-02-24 07:11:00,33.0,30.0,29.92,North,360,18.0,22.0,90,0.00,,,0.00,,2013-02-24 12:11:00,
2013-02-24 07:22:00,33.0,30.0,29.92,North,360,17.0,22.0,90,0.00,,,0.00,,2013-02-24 12:22:00,
2013-02-24 07:32:00,33.0,30.0,29.92,North,360,18.0,22.0,89,0.00,,,0.00,,2013-02-24 12:32:00,
2013-02-24 07:46:00,33.0,30.0,29.92,North,360,18.0,22.0,89,0.00,,,0.00,,2013-02-24 12:46:00,
2013-02-24 07:55:00,33.0,30.0,29.92,North,360,17.0,22.0,89,0.00,,,0.00,,2013-02-24 12:55:00,
2013-02-24 08:15:00,33.0,30.0,29.91,North,360,16.0,21.0,90,0.00,,,0.00,,2013-02-24 13:15:00,
2013-02-24 08:26:00,33.0,30.0,29.91,North,360,15.0,20.0,90,0.00,,,0.00,,2013-02-24 13:26:00,
2013-02-24 08:45:00,33.0,31.0,29.91,North,360,17.0,22.0,91,0.00,,,0.00,,2013-02-24 13:45:00,
2013-02-24 08:53:00,33.0,31.0,29.91,North,360,18.0,21.0,91,0.00,,,0.00,,2013-02-24 13:53:00,
2013-02-24 09:05:00,33.0,31.0,29.90,North,360,17.0,22.0,92,0.00,,,0.00,,2013-02-24 14:05:00,
2013-02-24 09:14:00,33.0,31.0,29.90,North,360,14.0,21.0,92,0.00,,,0.00,,2013-02-24 14:14:00,
2013-02-24 09:25:00,33.0,31.0,29.90,North,360,14.0,21.0,92,0.00,,,0.00,,2013-02-24 14:25:00,
2013-02-24 09:34:00,33.0,31.0,29.89,North,360,19.0,22.0,92,0.00,,,0.00,,2013-02-24 14:34:00,
2013-02-24 09:44:00,33.0,31.0,29.89,North,360,19.0,22.0,92,0.00,,,0.00,,2013-02-24 14:44:00,
2013-02-24 10:04:00,33.0,31.0,29.88,North,360,16.0,21.0,91,0.01,,,0.01,,2013-02-24 15:04:00,
2013-02-24 10:13:00,33.0,31.0,29.87,North,360,18.0,20.0,91,0.01,,,0.01,,2013-02-24 15:13:00,
2013-02-24 10:24:00,33.0,31.0,29.87,North,360,18.0,20.0,91,0.01,,,0.01,,2013-02-24 15:24:00,
2013-02-24 10:32:00,33.0,31.0,29.87,North,360,18.0,21.0,91,0.01,,,0.01,,2013-02-24 15:32:00,
2013-02-24 10:42:00,33.0,31.0,29.87,North,360,18.0,21.0,91,0.01,,,0.01,,2013-02-24 15:42:00,
2013-02-24 10:52:00,33.0,31.0,29.87,North,360,16.0,20.0,91,0.01,,,0.01,,2013-02-24 15:52:00,
2013-02-24 11:01:00,33.0,31.0,29.86,North,360,19.0,21.0,91,0.01,,,0.02,,2013-02-24 16:01:00,
2013-02-24 11:12:00,33.0,31.0,29.86,North,360,19.0,21.0,91,0.01,,,0.02,,2013-02-24 16:12:00,
2013-02-24 11:21:00,33.0,31.0,29.85,North,360,16.0,20.0,92,0.01,,,0.02,,2013-02-24 16:21:00,
2013-02-24 11:32:00,33.0,31.0,29.85,North,360,16.0,21.0,91,0.01,,,0.02,,2013-02-24 16:32:00,
2013-02-24 11:42:00,33.0,31.0,29.85,North,360,16.0,21.0,91,0.01,,,0.02,,2013-02-24 16:42:00,
2013-02-24 11:52:00,33.0,31.0,29.84,North,360,14.0,20.0,92,0.01,,,0.02,,2013-02-24 16:52:00,
2013-02-24 12:01:00,32.0,30.0,29.84,North,360,15.0,18.0,93,0.00,,,0.02,,2013-02-24 17:01:00,
2013-02-24 12:11:00,32.0,30.0,29.84,North,360,15.0,18.0,93,0.00,,,0.02,,2013-02-24 17:11:00,
2013-02-24 12:22:00,32.0,30.0,29.84,North,360,16.0,19.0,93,0.00,,,0.02,,2013-02-24 17:22:00,
2013-02-24 12:32:00,32.0,30.0,29.83,North,360,17.0,20.0,94,0.00,,,0.02,,2013-02-24 17:32:00,
2013-02-24 12:42:00,32.0,30.0,29.83,North,360,17.0,20.0,94,0.00,,,0.02,,2013-02-24 17:42:00,
2013-02-24 12:52:00,32.0,30.0,29.83,North,360,17.0,20.0,94,0.00,,,0.02,,2013-02-24 17:52:00,
2013-02-24 13:02:00,31.0,29.0,29.81,North,360,16.0,21.0,94,0.00,,,0.02,,2013-02-24 18:02:00,
2013-02-24 13:11:00,31.0,29.0,29.81,North,360,16.0,21.0,94,0.00,,,0.02,,2013-02-24 18:11:00,
2013-02-24 13:22:00,31.0,29.0,29.80,North,360,19.0,24.0,94,0.00,,,0.02,,2013-02-24 18:22:00,
2013-02-24 13:32:00,31.0,29.0,29.80,North,360,18.0,23.0,94,0.00,,,0.02,,2013-02-24 18:32:00,
2013-02-24 13:42:00,31.0,29.0,29.80,North,360,18.0,23.0,94,0.00,,,0.02,,2013-02-24 18:42:00,
2013-02-24 13:52:00,31.0,29.0,29.79,North,360,19.0,23.0,94,0.00,,,0.02,,2013-02-24 18:52:00,
2013-02-24 14:01:00,31.0,29.0,29.78,North,360,18.0,22.0,94,0.00,,,0.02,,2013-02-24 19:01:00,
2013-02-24 14:12:00,31.0,29.0,29.78,North,360,18.0,22.0,94,0.00,,,0.02,,2013-02-24 19:12:00,
2013-02-24 14:22:00,31.0,29.0,29.79,North,360,18.0,23.0,94,0.00,,,0.02,,2013-02-24 19:22:00,
2013-02-24 14:32:00,31.0,29.0,29.78,North,360,17.0,20.0,94,0.00,,,0.02,,2013-02-24 19:32:00,
2013-02-24 14:42:00,31.0,29.0,29.78,North,360,17.0,20.0,94,0.00,,,0.02,,2013-02-24 19:42:00,
2013-02-24 14:52:00,31.0,29.0,29.78,North,360,17.0,20.0,94,0.00,,,0.02,,2013-02-24 19:52:00,
2013-02-24 15:02:00,31.0,30.0,29.78,North,360,20.0,23.0,95,0.00,,,0.02,,2013-02-24 20:02:00,
2013-02-24 15:11:00,31.0,30.0,29.78,North,360,20.0,23.0,95,0.00,,,0.02,,2013-02-24 20:11:00,
2013-02-24 15:21:00,31.0,30.0,29.78,North,360,18.0,22.0,95,0.00,,,0.02,,2013-02-24 20:21:00,
2013-02-24 15:32:00,30.0,29.0,29.78,North,360,19.0,22.0,95,0.00,,,0.02,,2013-02-24 20:32:00,
2013-02-24 15:42:00,30.0,29.0,29.78,North,360,19.0,22.0,95,0.00,,,0.02,,2013-02-24 20:42:00,
2013-02-24 15:52:00,30.0,29.0,29.78,North,360,18.0,23.0,95,0.00,,,0.02,,2013-02-24 20:52:00,
2013-02-24 16:02:00,30.0,29.0,29.77,North,360,17.0,22.0,95,0.00,,,0.02,,2013-02-24 21:02:00,
2013-02-24 16:11:00,30.0,29.0,29.77,North,360,17.0,22.0,95,0.00,,,0.02,,2013-02-24 21:11:00,
2013-02-24 16:21:00,30.0,29.0,29.77,North,360,19.0,20.0,95,0.00,,,0.02,,2013-02-24 21:21:00,
2013-02-24 16:32:00,30.0,29.0,29.78,North,360,17.0,21.0,95,0.00,,,0.02,,2013-02-24 21:32:00,
2013-02-24 16:42:00,30.0,29.0,29.78,North,360,17.0,21.0,95,0.00,,,0.02,,2013-02-24 21:42:00,
2013-02-24 16:52:00,30.0,29.0,29.78,North,360,19.0,21.0,95,0.00,,,0.02,,2013-02-24 21:52:00,
2013-02-24 17:01:00,30.0,29.0,29.78,North,360,17.0,19.0,95,0.00,,,0.02,,2013-02-24 22:01:00,
2013-02-24 17:11:00,30.0,29.0,29.78,North,360,17.0,19.0,95,0.00,,,0.02,,2013-02-24 22:11:00,
2013-02-24 17:22:00,30.0,29.0,29.78,North,360,17.0,22.0,95,0.00,,,0.02,,2013-02-24 22:22:00,
2013-02-24 17:32:00,29.0,28.0,29.78,North,360,19.0,23.0,95,0.00,,,0.02,,2013-02-24 22:32:00,
2013-02-24 17:42:00,29.0,28.0,29.78,North,360,19.0,23.0,95,0.00,,,0.02,,2013-02-24 22:42:00,
2013-02-24 17:52:00,29.0,28.0,29.78,North,360,18.0,24.0,95,0.00,,,0.02,,2013-02-24 22:52:00,
2013-02-24 18:02:00,29.0,28.0,29.79,North,360,14.0,19.0,95,0.00,,,0.02,,2013-02-24 23:02:00,
2013-02-24 18:11:00,29.0,28.0,29.79,North,360,14.0,19.0,95,0.00,,,0.02,,2013-02-24 23:11:00,
2013-02-24 18:21:00,29.0,28.0,29.79,North,360,14.0,16.0,95,0.00,,,0.02,,2013-02-24 23:21:00,
2013-02-24 18:32:00,29.0,28.0,29.79,North,360,13.0,15.0,95,0.00,,,0.02,,2013-02-24 23:32:00,
2013-02-24 18:42:00,29.0,28.0,29.79,North,360,13.0,15.0,95,0.00,,,0.02,,2013-02-24 23:42:00,
2013-02-24 18:52:00,29.0,28.0,29.79,North,360,13.0,16.0,95,0.00,,,0.02,,2013-02-24 23:52:00,
2013-02-24 19:01:00,29.0,28.0,29.80,North,360,13.0,16.0,95,0.00,,,0.02,,2013-02-25 00:01:00,
2013-02-24 19:11:00,29.0,28.0,29.80,North,360,13.0,16.0,95,0.00,,,0.02,,2013-02-25 00:11:00,
2013-02-24 19:21:00,30.0,29.0,29.80,North,360,12.0,14.0,95,0.00,,,0.02,,2013-02-25 00:21:00,
2013-02-24 19:32:00,30.0,28.0,29.79,North,360,13.0,16.0,94,0.00,,,0.02,,2013-02-25 00:32:00,
2013-02-24 19:42:00,30.0,28.0,29.79,North,360,13.0,16.0,94,0.00,,,0.02,,2013-02-25 00:42:00,
2013-02-24 19:52:00,30.0,28.0,29.80,North,360,14.0,17.0,94,0.00,,,0.02,,2013-02-25 00:52:00,
2013-02-24 20:01:00,30.0,28.0,29.80,North,360,12.0,17.0,93,0.00,,,0.02,,2013-02-25 01:01:00,
2013-02-24 20:11:00,30.0,28.0,29.80,North,360,12.0,17.0,93,0.00,,,0.02,,2013-02-25 01:11:00,
2013-02-24 20:21:00,30.0,28.0,29.80,North,360,12.0,16.0,93,0.00,,,0.02,,2013-02-25 01:21:00,
2013-02-24 20:32:00,30.0,28.0,29.80,North,360,10.0,14.0,92,0.00,,,0.02,,2013-02-25 01:32:00,
2013-02-24 20:42:00,30.0,28.0,29.80,North,360,10.0,14.0,92,0.00,,,0.02,,2013-02-25 01:42:00,
2013-02-24 20:52:00,30.0,28.0,29.81,North,360,9.0,12.0,92,0.00,,,0.02,,2013-02-25 01:52:00,
2013-02-24 21:01:00,29.0,27.0,29.81,North,360,9.0,13.0,92,0.00,,,0.02,,2013-02-25 02:01:00,
2013-02-24 21:11:00,29.0,27.0,29.82,North,360,9.0,13.0,92,0.00,,,0.02,,2013-02-25 02:11:00,
2013-02-24 21:21:00,29.0,27.0,29.82,North,360,9.0,13.0,92,0.00,,,0.02,,2013-02-25 02:21:00,
2013-02-24 21:32:00,29.0,27.0,29.82,North,360,12.0,15.0,91,0.00,,,0.02,,2013-02-25 02:32:00,
2013-02-24 21:42:00,29.0,27.0,29.82,North,360,12.0,15.0,91,0.00,,,0.02,,2013-02-25 02:42:00,
2013-02-24 21:52:00,29.0,27.0,29.82,North,360,12.0,17.0,91,0.00,,,0.02,,2013-02-25 02:52:00,
2013-02-24 22:02:00,29.0,26.0,29.82,North,360,13.0,15.0,89,0.00,,,0.02,,2013-02-25 03:02:00,
2013-02-24 22:11:00,29.0,26.0,29.82,North,360,13.0,15.0,89,0.00,,,0.02,,2013-02-25 03:11:00,
2013-02-24 22:21:00,29.0,26.0,29.82,North,360,13.0,18.0,89,0.00,,,0.02,,2013-02-25 03:21:00,
2013-02-24 22:32:00,29.0,26.0,29.83,North,360,12.0,16.0,88,0.00,,,0.02,,2013-02-25 03:32:00,
2013-02-24 22:42:00,29.0,26.0,29.83,North,360,12.0,16.0,88,0.00,,,0.02,,2013-02-25 03:42:00,
2013-02-24 22:51:00,29.0,26.0,29.83,North,360,13.0,16.0,88,0.00,,,0.02,,2013-02-25 03:51:00,
2013-02-24 23:02:00,29.0,26.0,29.84,North,360,12.0,16.0,88,0.00,,,0.02,,2013-02-25 04:02:00,
2013-02-24 23:11:00,29.0,26.0,29.84,North,360,12.0,16.0,88,0.00,,,0.02,,2013-02-25 04:11:00,
2013-02-24 23:21:00,29.0,26.0,29.84,North,360,7.0,13.0,88,0.00,,,0.02,,2013-02-25 04:21:00,
2013-02-24 23:32:00,28.0,25.0,29.85,North,360,10.0,17.0,89,0.00,,,0.02,,2013-02-25 04:32:00,
2013-02-24 23:42:00,28.0,25.0,29.85,North,360,10.0,17.0,89,0.00,,,0.02,,2013-02-25 04:42:00,
2013-02-24 23:52:00,28.0,25.0,29.85,North,360,10.0,15.0,89,0.00,,,0.02,,2013-02-25 04:52:00,